CZ-6A DEB, 56277

Orbit data source: Space-Track

CZ-6A DEB, 56277 is space debris in SSO originally from a launch on Fri, 11 Nov 2022 UTC launched from the Taiyaun Space Center, China (TSC). Debris objects in space refer to the collection of defunct objects orbiting the Earth. Examples of debris include non-operational satellites, rocket bodies, and fragments generated from explosions, collisions, or faulty payload assembly.

Loading next visibility...
Identifier
56277, 2022-151ACV
Orbit
SSO
Country
Flag of CNCN / PRC
Related business
Manufacturer
SAST
Mission
Spacecraft
Bus & Motor
Unknown
Mass
Unknown
Launch date (UTC)
2022-11-11 (4 years ago)
Launch vehicle
Unknown
Launch site
Taiyaun Space Center, China (TSC)
Object type
Payload
Rocket body
Debris
Shape & HBR
Unknown shape, 0.1 m
Radar Cross Section
Medium (>0.1 m² and <1 m²)

Expand to show TLE details & history
Last TLE update: 21 hours ago

TLE from 21 hours ago
0 CZ-6A DEB
1 56277U 22151ACV 26235.53290700  .00001384  00000-0  53784-3 0  9998
2 56277  98.7173 260.6746 0048246 127.0781 233.4826 14.30829726178551
Epoch: 2026-08-23T12:47Z
TLE epoch observation values (Epoch: 2026-08-23T12:47:23.164Z)
Latitude
-0.00011°
Longitude
97.0005°
Altitude
812.576 km
Speed
7.436 km/s
True Right ascension
17h 22m 41s
True Declination
0° 00' 00"
Sunlit
Object was in daylight at epoch
Visualization orbit readout
Latitude
Unknown
Longitude
Unknown
Altitude
Unknown
Speed
Unknown
Apparent Right ascension
Unknown
Apparent Declination
Unknown
Sunlit
N/A
Visualization observer readout
Local Sidereal Time
00:47:27
Azimuth
Unknown
Elevation
Unknown
Doppler factor
Unknown
Orbital elements
Apogee altitude
820.668 km
Perigee altitude
751.539 km
Semi-major axis
7,164.24 km
Eccentricity
0.00482
Inclination
98.7173°
RAAN
260.6746°
Arg. of periapsis
127.0781°
True anomaly
233.03987°
Mean anomaly
233.4826°
Eccentric anomaly
233.26108°
Mean motion
3.57922 °/min
Orbital period
100.58 mins
BSTAR
0.00053784
Loading maneuver chart data...
Computing Atmospheric mass density...
Loading historical data...
Loading historical data...
Loading historical data...
Loading historical data...
Loading historical data...
Loading historical data...
Loading historical data...

Documentation

Showing up to 5 results
|